User: anonymous   Login
Location: *
(45.1961°N, 1.9694°E)
Time: 04:52:30
(UTC+00:00)
Language:

Cosmos 1680 Rocket - Orbit

View from above orbital plane
View from above orbital plane
View from above satellite
View from above satellite

Ground track
Ground track

The orbit data is extracted from the following two-line orbital elements,

1 16012U 85079B   19290.80048693  .00000034  00000-0  20486-4 0  9999
2 16012  74.0617  11.2116 0013958  59.4084 300.8444 14.36335870786201
Epoch (UTC): 17 October 2019 19:12:42
Eccentricity: 0.0013958
inclination: 74.0617°
perigee height: 760 km
apogee height: 780 km
right ascension of ascending node: 11.2116°
argument of perigee: 59.4084°
revolutions per day: 14.36335870
mean anomaly at epoch: 300.8444°
orbit number at epoch: 78620

The dashed part of the orbit path shows where the satellite is in the earth's shadow,  

DLR